Location: Unspecified
(48.7670°N, 0.0000°E)
Time: 17:41:16
(UTC+00:00)

A-11 Canister half - Pass Details

Date: 29 June 2019
Orbit: 1526 x 1682 km, 47.3° (Epoch: 24 August)

Event Time Altitude Azimuth Distance (km) Brightness Sun altitude
Exits shadow 00:22:55 13° 145° (SE) 3,572 10.5 -17.8°
Maximum altitude 00:25:50 15° 125° (SE) 3,406 10.5 -17.8°
Drops below altitude 10° 00:30:26 10° 96° (E) 3,747 11.0 -17.7°
Sets 00:35:17 0° 74° (ENE) 4,711 11.9 -17.6°
